This is the latest recevied weather packets stored in our database for station/object KE5WTH-14. If no packets are shown the sender has not sent any weather packets the latest 10 day(s).
| Time | Temp. | Humidity | Pressure | Rain* | Wind** | Luminosity | Snow |
|---|---|---|---|---|---|---|---|
| 1777484526 | 16.67° C | 78% | 1015.8 hPa | 0 mm | - | 157 W/m² | - |
| 1777484466 | 16.67° C | 78% | 1015.8 hPa | 0 mm | - | 165 W/m² | - |
| 1777484407 | 16.67° C | 78% | 1015.8 hPa | 0 mm | - | 172 W/m² | - |
| 1777484347 | 16.67° C | 78% | 1015.8 hPa | 0 mm | - | 174 W/m² | - |
| 1777484286 | 16.67° C | 78% | 1015.7 hPa | 0 mm | - | 174 W/m² | - |
| 1777484225 | 16.67° C | 78% | 1015.7 hPa | 0 mm | - | 179 W/m² | - |
| 1777484164 | 16.67° C | 78% | 1015.8 hPa | 0 mm | - | 179 W/m² | - |
| 1777484104 | 16.67° C | 78% | 1015.7 hPa | 0 mm | - | 193 W/m² | - |
| 1777484053 | 16.67° C | 78% | 1015.7 hPa | 0 mm | - | 193 W/m² | - |
| 1777484021 | 16.67° C | 78% | 1015.8 hPa | 0 mm | - | 193 W/m² | - |
| 1777483991 | 16.67° C | 78% | 1015.8 hPa | 0 mm | - | 186 W/m² | - |
| 1777483959 | 16.67° C | 77% | 1015.9 hPa | 0 mm | - | 179 W/m² | - |
| 1777483794 | 16.67° C | 77% | 1016 hPa | 0 mm | - | 172 W/m² | - |
| 1777483744 | 16.67° C | 77% | 1016 hPa | 0 mm | - | 164 W/m² | - |
| 1777483715 | 16.67° C | 78% | 1016.1 hPa | 0 mm | - | 165 W/m² | - |
| 1777483686 | 16.67° C | 77% | 1016 hPa | 0 mm | - | 174 W/m² | - |
| 1777483657 | 17.22° C | 78% | 1016 hPa | 0 mm | - | 185 W/m² | - |
| 1777483488 | 17.22° C | 78% | 1016 hPa | 0 mm | - | 195 W/m² | - |
| 1777483434 | 17.22° C | 78% | 1016.1 hPa | 0 mm | - | 204 W/m² | - |
| 1777483403 | 17.22° C | 78% | 1015.9 hPa | 0 mm | - | 241 W/m² | - |
| 1777483376 | 16.67° C | 78% | 1015.9 hPa | 0 mm | - | 241 W/m² | - |
| 1777483347 | 16.67° C | 78% | 1015.8 hPa | 0 mm | - | 252 W/m² | - |
| 1777483174 | 16.67° C | 78% | 1015.7 hPa | 0 mm | - | 259 W/m² | - |
| 1777483112 | 16.67° C | 78% | 1015.9 hPa | 0 mm | - | 274 W/m² | - |
| 1777483052 | 16.67° C | 78% | 1015.9 hPa | 0 mm | - | 341 W/m² | - |
* Rain latest hour (hover to see other rain measurements)
** Current wind speed in m/s (hover to see current wind gust speed)